Starlink 33883

operational
NORAD ID: 63781 Int'l Des: 2025-091 Owner: SPXS Country: US Constellation: starlink
LEOCIRCULAR

Starlink 33883について

説明を読み込み中...

リアルタイム位置

3D地球を読み込み中...

次回通過

高度履歴

Altitude vs Time

uPlot chart will show altitude changes over time

軌道要素

1 63781U 25091G 26034.97521053 .00013428 00000-0 49648-3 0 9991
2 63781 42.9995 243.1377 0001905 273.1514 86.9120 15.27588201 43743
Epoch: Feb 3, 2026 • Age: 12 hours

現在のステータス

高度 484.5 km
速度 7.62 km/s
衛星直下点 -10.66°S, 128.66°E
打ち上げ日 May 2, 2025
運用期間 0.7 years
タイプ internet

技術仕様

分類 Payload
質量 575.00 kg
乾燥質量 530.00 kg
総質量 575.00 kg
長さ 0.30 m
直径 4.10 m
スパン 29.00 m
形状 Box + pan
製造者 SPXS
バスタイプ Starlink V2MO
フェーズステータス In Orbit
所有者/国 SPXS/US

大規模コンステレーション

Loading constellations...